Weather History for Christchurch, New Zealand

Change the Weather History Date:

Wednesday, February 27, 2013

  Actual Average Record
Temperature  
Mean Temperature 63 °F -  
Max Temperature 71 °F 67 °F 82 °F (2006)
Min Temperature 55 °F 51 °F 44 °F (2004)
Degree Days  
Heating Degree Days 2    
Growing Degree Days 13 (Base 50)    
Moisture  
Dew Point 57 °F    
Average Humidity 81    
Maximum Humidity 100    
Minimum Humidity 57    
Precipitation  
Precipitation 0.00 in - - ()
Sea Level Pressure  
Sea Level Pressure 30.20 in    
Wind  
Wind Speed 5 mph ()    
Max Wind Speed 16 mph    
Max Gust Speed -    
Visibility 6.2 miles    
Events      
Averages and records for this station are not official NWS values.
T = Trace of Precipitation, MM = Missing Value Source: Averaged Metar Reports

Daily Weather History Graph

Daily Weather History Graph

Search for Another Location

Airport:

Trip Planner

Search our weather history database for the weather conditions in past years. The results will help you decide how hot, cold, wet, or windy it might be!

Date:

Astronomy

Feb. 27, 2013 Rise Set
Actual Time 7:05 AM NZDT 8:18 PM NZDT
Civil Twilight 6:35 AM NZDT 8:48 PM NZDT
Nautical Twilight 6:00 AM NZDT 9:23 PM NZDT
Astronomical Twilight 5:23 AM NZDT 10:00 PM NZDT
Moon 8:34 PM NZDT (2/27) 8:19 AM NZDT (2/27)
Length of Visible Light 14h 12m
Length of Day
13h 13m
Full, 99% of the Moon is Illuminated
Feb 27
Full
Mar 5
Last Quarter
Mar 12
New
Mar 20
First Quarter
Mar 27
Full

Hourly Weather History & Observations

Time (NZDT) Temp. Dew Point Humidity Pressure Visibility Wind Dir Wind Speed Gust Speed Precip Events Conditions
12:00 AM 57.2 °F 55.4 °F 94% 30.27 in 6.2 mi West 4.6 mph - N/A   Partly Cloudy
1:00 AM 55.4 °F 55.4 °F 100% 30.27 in 6.2 mi West 3.5 mph - N/A   Partly Cloudy
2:00 AM 55.4 °F 53.6 °F 94% 30.27 in 6.2 mi SW 4.6 mph - N/A   Partly Cloudy
3:00 AM 57.2 °F 55.4 °F 94% 30.27 in 6.2 mi WSW 2.3 mph - N/A   Mostly Cloudy
4:00 AM 57.2 °F 55.4 °F 94% 30.27 in 6.2 mi WSW 3.5 mph - N/A   Mostly Cloudy
5:00 AM 57.2 °F 57.2 °F 100% 30.24 in 6.2 mi WNW 1.2 mph - N/A   Mostly Cloudy
6:00 AM 59.0 °F 57.2 °F 94% 30.24 in 6.2 mi West 2.3 mph - N/A   Mostly Cloudy
7:00 AM 59.0 °F 57.2 °F 94% 30.24 in 6.2 mi WSW 1.2 mph - N/A   Mostly Cloudy
8:00 AM 59.0 °F 59.0 °F 100% 30.24 in 6.2 mi West 2.3 mph - N/A   Mostly Cloudy
9:00 AM 60.8 °F 59.0 °F 94% 30.24 in 6.2 mi South 2.3 mph - N/A   Mostly Cloudy
10:00 AM 64.4 °F 57.2 °F 77% 30.24 in 6.2 mi East 1.2 mph - N/A   Mostly Cloudy
11:00 AM 64.4 °F 55.4 °F 73% 30.24 in 6.2 mi ENE 5.8 mph - N/A   Mostly Cloudy
12:00 PM 66.2 °F 55.4 °F 68% 30.24 in 6.2 mi NE 5.8 mph - N/A   Mostly Cloudy
1:00 PM 71.6 °F 55.4 °F 57% 30.21 in 6.2 mi East 4.6 mph - N/A   Scattered Clouds
2:00 PM 71.6 °F 55.4 °F 57% 30.18 in - ENE 10.4 mph - N/A   Clear
3:00 PM 71.6 °F 55.4 °F 57% 30.18 in - East 11.5 mph - N/A   Clear
4:00 PM 71.6 °F 55.4 °F 57% 30.15 in - ENE 11.5 mph - N/A   Clear
5:00 PM 68.0 °F 55.4 °F 64% 30.12 in - ENE 12.7 mph - N/A   Clear
6:00 PM 68.0 °F 57.2 °F 68% 30.12 in - ENE 13.8 mph - N/A   Clear
7:00 PM 66.2 °F 57.2 °F 73% 30.09 in - ENE 16.1 mph - N/A   Clear
8:00 PM 64.4 °F 59.0 °F 83% 30.09 in 6.2 mi ENE 15.0 mph - N/A   Mostly Cloudy
9:00 PM 62.6 °F 57.2 °F 82% 30.09 in 6.2 mi ENE 15.0 mph - N/A   Mostly Cloudy
10:00 PM 62.6 °F 59.0 °F 88% 30.12 in 6.2 mi ENE 15.0 mph - N/A   Mostly Cloudy
11:00 PM 62.6 °F 59.0 °F 88% 30.12 in 6.2 mi ENE 15.0 mph - N/A   Mostly Cloudy